CW4438 Weather Reports


Display with metric or nautical units.
time (UTC)temp
F
wind
direction
speed
MPH
gust
MPH
rain 1hr
in
rain 24hr
in
rain mn
in
humidity
%
barometer
mb
20260905081402 76 155 0.0 0.0 0.00 0.00 0.00 76 1014.4
20260905080903 77 155 0.0 0.0 0.00 0.00 0.00 75 1014.5
20260905080402 77 155 0.0 0.0 0.00 0.00 0.00 75 1014.4
20260905075900 77 155 0.0 0.0 0.00 0.00 0.00 75 1014.4
20260905075401 77 155 0.0 0.0 0.00 0.00 0.00 75 1014.4
20260905074900 77 155 0.0 0.0 0.00 0.00 0.00 74 1014.4
20260905074400 78 155 0.0 0.0 0.00 0.00 0.00 74 1014.4
20260905073900 78 155 0.0 1.0 0.00 0.00 0.00 74 1014.5
20260905073401 78 155 0.0 1.0 0.00 0.00 0.00 73 1014.5
20260905072900 78 155 0.0 1.0 0.00 0.00 0.00 73 1014.5
20260905071842 78 155 0.0 1.0 0.00 0.00 0.00 72 1014.7
20260905071333 79 155 0.0 0.0 0.00 0.00 0.00 72 1014.7
20260905070832 79 155 0.0 1.0 0.00 0.00 0.00 71 1014.7
20260905070332 79 155 0.0 1.0 0.00 0.00 0.00 71 1014.7
20260905065832 79 155 0.0 1.0 0.00 0.00 0.00 71 1014.8
20260905064832 80 155 0.0 2.0 0.00 0.00 0.00 70 1014.8
20260905063832 80 93 0.0 2.0 0.00 0.00 0.00 70 1014.8
20260905063332 80 94 0.0 2.0 0.00 0.00 0.00 69 1014.8
20260905062831 80 94 0.0 2.0 0.00 0.00 0.00 69 1014.8
20260905062331 80 94 0.0 3.0 0.00 0.00 0.00 69 1014.9
20260905061830 80 95 0.0 3.0 0.00 0.00 0.00 69 1014.8
20260905060330 80 114 0.0 2.0 0.00 0.00 0.00 69 1014.9
20260905055331 80 100 0.0 2.0 0.00 0.00 0.00 69 1014.9
20260905053832 80 90 0.0 1.0 0.00 0.00 0.00 68 1014.9
20260905053332 80 90 0.0 1.0 0.00 0.00 0.00 68 1014.9
20260905051830 81 90 0.0 1.0 0.00 0.00 0.00 67 1014.9
20260905051332 81 90 0.0 1.0 0.00 0.00 0.00 67 1014.9
20260905050831 81 90 0.0 1.0 0.00 0.00 0.00 67 1014.9
20260905050331 81 90 0.0 1.0 0.00 0.00 0.00 66 1014.9
20260905045830 81 90 0.0 1.0 0.00 0.00 0.00 66 1014.9
20260905045331 82 90 0.0 1.0 0.00 0.00 0.00 65 1014.9
20260905044830 82 90 0.0 2.0 0.00 0.00 0.00 65 1014.9
20260905044331 82 90 0.0 2.0 0.00 0.00 0.00 65 1014.9
20260905043331 82 92 0.0 2.0 0.00 0.00 0.00 64 1014.8
20260905042831 82 92 0.0 2.0 0.00 0.00 0.00 64 1014.9
20260905042330 82 86 0.0 1.0 0.00 0.00 0.00 63 1014.8
20260905041831 83 86 0.0 1.0 0.00 0.00 0.00 63 1014.8
20260905041330 83 86 0.0 1.0 0.00 0.00 0.00 63 1014.8
20260905040831 83 86 0.0 1.0 0.00 0.00 0.00 62 1014.8
20260905040331 83 78 0.0 2.0 0.00 0.00 0.00 62 1014.7
20260905035831 83 71 0.0 2.0 0.00 0.00 0.00 62 1014.7
20260905035331 83 85 0.0 1.0 0.00 0.00 0.00 61 1014.7
20260905034830 84 85 0.0 2.0 0.00 0.00 0.00 61 1014.6
20260905034331 84 85 0.0 2.0 0.00 0.00 0.00 60 1014.7
20260905033830 84 83 0.0 1.0 0.00 0.00 0.00 60 1014.7
20260905033331 84 65 0.0 1.0 0.00 0.00 0.00 60 1014.7
20260905032830 85 65 0.0 1.0 0.00 0.00 0.00 59 1014.8
20260905032331 85 60 0.0 1.0 0.00 0.00 0.00 59 1014.7
20260905031830 85 57 0.0 3.0 0.00 0.00 0.00 58 1014.7
20260905031331 85 57 0.0 3.0 0.00 0.00 0.00 58 1014.7
20260905030831 85 112 0.0 3.0 0.00 0.00 0.00 58 1014.7
20260905030330 86 131 0.0 3.0 0.00 0.00 0.00 58 1014.6
20260905025832 86 110 0.0 3.0 0.00 0.00 0.00 57 1014.6
20260905025332 86 328 0.0 3.0 0.00 0.00 0.00 57 1014.5
20260905024832 86 88 0.0 2.0 0.00 0.00 0.00 57 1014.4
20260905024332 86 88 0.0 2.0 0.00 0.00 0.00 56 1014.3
20260905023332 87 90 0.0 2.0 0.00 0.00 0.00 56 1014.2
20260905022832 87 93 0.0 2.0 0.00 0.00 0.00 56 1014.1
20260905022330 87 93 0.0 2.0 0.00 0.00 0.00 55 1014.0
20260905021831 87 109 0.0 2.0 0.00 0.00 0.00 55 1014.0
20260905021331 87 94 1.0 2.0 0.00 0.00 0.00 55 1013.9
20260905020830 87 80 1.0 3.0 0.00 0.00 0.00 55 1013.8
20260905020331 87 134 1.0 3.0 0.00 0.00 0.00 55 1013.6
20260905015830 87 121 1.0 2.0 0.00 0.00 0.00 54 1013.5
20260905015331 88 127 0.0 2.0 0.00 0.00 0.00 54 1013.5
20260905014330 88 136 0.0 2.0 0.00 0.00 0.00 53 1013.4
20260905013831 89 103 0.0 1.0 0.00 0.00 0.00 53 1013.4
20260905013330 89 95 0.0 1.0 0.00 0.00 0.00 52 1013.3
20260905012831 89 83 0.0 1.0 0.00 0.00 0.00 52 1013.2
20260905012330 89 111 0.0 2.0 0.00 0.00 0.00 51 1013.2
20260905011831 90 85 0.0 2.0 0.00 0.00 0.00 50 1013.2
20260905011331 90 123 0.0 2.0 0.00 0.00 0.00 49 1013.2
20260905010819 90 96 1.0 2.0 0.00 0.00 0.00 48 1013.1
20260905010311 91 146 0.0 2.0 0.00 0.00 0.00 47 1013.0
20260905005807 91 65 0.0 2.0 0.00 0.00 0.00 46 1013.0
20260905005307 92 84 0.0 2.0 0.00 0.00 0.00 46 1013.0
20260905004807 92 102 0.0 3.0 0.00 0.00 0.00 45 1012.9
20260905004307 93 115 1.0 3.0 0.00 0.00 0.00 44 1012.8
20260905003307 94 98 0.0 3.0 0.00 0.00 0.00 43 1012.7
20260905002807 94 62 0.0 1.0 0.00 0.00 0.00 42 1012.7
20260905002307 94 94 0.0 2.0 0.00 0.00 0.00 42 1012.7
20260905001307 95 123 1.0 3.0 0.00 0.00 0.00 42 1012.7
20260905000807 95 126 1.0 3.0 0.00 0.00 0.00 40 1012.7
20260905000307 95 158 1.0 3.0 0.00 0.00 0.00 40 1012.7
20260904235805 95 84 1.0 5.0 0.00 0.00 0.00 40 1012.7
20260904235306 96 140 1.0 5.0 0.00 0.00 0.00 39 1012.7
20260904234803 96 158 2.0 6.0 0.00 0.00 0.00 39 1012.7
20260904234304 96 106 2.0 6.0 0.00 0.00 0.00 39 1012.8
20260904233804 96 146 1.0 5.0 0.00 0.00 0.00 39 1012.7
20260904233304 96 147 2.0 5.0 0.00 0.00 0.00 39 1012.7
20260904232804 96 175 2.0 7.0 0.00 0.00 0.00 38 1012.7
20260904232306 96 124 1.0 7.0 0.00 0.00 0.00 39 1012.7
20260904231804 97 140 2.0 5.0 0.00 0.00 0.00 38 1012.7
20260904230804 97 101 2.0 5.0 0.00 0.00 0.00 37 1012.8
20260904230303 97 143 2.0 4.0 0.00 0.00 0.00 38 1012.7
20260904225803 98 186 2.0 4.0 0.00 0.00 0.00 37 1012.7
20260904225306 98 195 1.0 3.0 0.00 0.00 0.00 36 1012.7
20260904224803 98 123 1.0 5.0 0.00 0.00 0.00 36 1012.7
20260904224302 99 203 2.0 5.0 0.00 0.00 0.00 35 1012.8
20260904223803 99 244 2.0 5.0 0.00 0.00 0.00 35 1012.8
20260904223303 99 166 2.0 5.0 0.00 0.00 0.00 36 1012.8
20260904222803 99 158 2.0 5.0 0.00 0.00 0.00 36 1012.9
20260904222306 99 180 1.0 5.0 0.00 0.00 0.00 37 1012.9
20260904221802 98 355 1.0 3.0 0.00 0.00 0.00 37 1012.9
20260904220803 99 228 2.0 7.0 0.00 0.00 0.00 36 1013.1
20260904220303 100 198 2.0 7.0 0.00 0.00 0.00 36 1013.1
20260904215305 101 200 3.0 8.0 0.00 0.00 0.00 34 1013.1
20260904214802 102 184 3.0 8.0 0.00 0.00 0.00 33 1013.2
20260904213303 102 142 2.0 5.0 0.00 0.00 0.00 32 1013.3
20260904212803 102 243 3.0 7.0 0.00 0.00 0.00 33 1013.3
20260904211803 101 121 2.0 6.0 0.00 0.00 0.00 33 1013.3
20260904211302 100 155 1.0 3.0 0.00 0.00 0.00 35 1013.4
20260904210803 100 218 1.0 3.0 0.00 0.00 0.00 35 1013.4
20260904210302 100 210 1.0 4.0 0.00 0.00 0.00 34 1013.5
20260904205803 100 174 2.0 7.0 0.00 0.00 0.00 33 1013.5
20260904205305 101 192 3.0 7.0 0.00 0.00 0.00 34 1013.6
20260904204803 101 315 2.0 5.0 0.00 0.00 0.00 33 1013.6
20260904204303 101 175 2.0 4.0 0.00 0.00 0.00 33 1013.8
20260904203803 101 210 2.0 5.0 0.00 0.00 0.00 33 1013.8
20260904203304 102 159 3.0 6.0 0.00 0.00 0.00 33 1013.9
20260904202306 103 220 3.0 10.0 0.00 0.00 0.00 33 1013.9
20260904201803 103 190 2.0 6.0 0.00 0.00 0.00 33 1013.8
20260904201304 102 223 2.0 4.0 0.00 0.00 0.00 34 1013.8
20260904200304 101 25 2.0 5.0 0.00 0.00 0.00 35 1014.0
20260904195803 102 114 2.0 6.0 0.00 0.00 0.00 35 1014.2
20260904195306 101 124 2.0 6.0 0.00 0.00 0.00 34 1014.2
20260904194804 101 294 2.0 7.0 0.00 0.00 0.00 34 1014.2
20260904193303 102 264 2.0 5.0 0.00 0.00 0.00 34 1014.4
20260904192306 101 150 3.0 7.0 0.00 0.00 0.00 34 1014.5
20260904191805 101 252 3.0 8.0 0.00 0.00 0.00 35 1014.6
20260904191303 101 135 3.0 8.0 0.00 0.00 0.00 35 1014.7
20260904190302 100 269 2.0 7.0 0.00 0.00 0.00 35 1014.8
20260904185803 100 205 2.0 4.0 0.00 0.00 0.00 37 1014.8
20260904184803 99 90 4.0 11.0 0.00 0.00 0.00 37 1015.0
20260904184303 99 285 3.0 11.0 0.00 0.00 0.00 36 1015.0
20260904182306 100 189 2.0 6.0 0.00 0.00 0.00 38 1015.2
20260904181802 100 168 3.0 7.0 0.00 0.00 0.00 38 1015.3
20260904181303 100 340 3.0 8.0 0.00 0.00 0.00 37 1015.3
20260904180802 99 251 3.0 8.0 0.00 0.00 0.00 37 1015.3
20260904180304 99 257 3.0 7.0 0.00 0.00 0.00 38 1015.3
20260904175803 99 80 3.0 7.0 0.00 0.00 0.00 38 1015.5
20260904175305 98 162 3.0 7.0 0.00 0.00 0.00 41 1015.6
20260904174303 98 277 2.0 8.0 0.00 0.00 0.00 42 1015.8
20260904173803 98 244 2.0 6.0 0.00 0.00 0.00 43 1015.8
20260904173303 97 44 2.0 6.0 0.00 0.00 0.00 43 1015.8
20260904172802 97 241 2.0 5.0 0.00 0.00 0.00 44 1016.0
20260904171303 96 210 3.0 7.0 0.00 0.00 0.00 45 1016.2
20260904170802 96 263 3.0 8.0 0.00 0.00 0.00 45 1016.2
20260904165803 96 273 2.0 7.0 0.00 0.00 0.00 46 1016.3
20260904165305 96 84 2.0 6.0 0.00 0.00 0.00 46 1016.3
20260904164754 95 74 3.0 6.0 0.00 0.00 0.00 47 1016.5
20260904163738 95 187 3.0 7.0 0.00 0.00 0.00 48 1016.6
20260904163237 95 305 3.0 6.0 0.00 0.00 0.00 48 1016.6
20260904162234 94 225 3.0 7.0 0.00 0.00 0.00 48 1016.5
20260904161235 94 207 3.0 8.0 0.00 0.00 0.00 51 1016.5
20260904160734 93 110 3.0 8.0 0.00 0.00 0.00 49 1016.5
20260904160234 93 242 3.0 7.0 0.00 0.00 0.00 50 1016.5
20260904155733 93 200 3.0 8.0 0.00 0.00 0.00 52 1016.5
20260904155233 92 128 3.0 8.0 0.00 0.00 0.00 52 1016.5
20260904154733 92 248 3.0 8.0 0.00 0.00 0.00 52 1016.5
20260904154233 92 209 3.0 13.0 0.00 0.00 0.00 52 1016.5
20260904153732 92 198 3.0 13.0 0.00 0.00 0.00 53 1016.5
20260904153233 92 183 2.0 5.0 0.00 0.00 0.00 55 1016.5
20260904152734 91 223 2.0 6.0 0.00 0.00 0.00 55 1016.6
20260904152233 91 234 2.0 6.0 0.00 0.00 0.00 56 1016.6
20260904151732 91 287 2.0 5.0 0.00 0.00 0.00 56 1016.6
20260904151232 90 267 2.0 5.0 0.00 0.00 0.00 57 1016.6
20260904150731 90 264 2.0 5.0 0.00 0.00 0.00 57 1016.6
20260904150232 90 224 2.0 5.0 0.00 0.00 0.00 58 1016.6
20260904145732 89 277 2.0 5.0 0.00 0.00 0.00 58 1016.7
20260904144731 88 213 2.0 4.0 0.00 0.00 0.00 61 1016.6
20260904144231 88 329 2.0 5.0 0.00 0.00 0.00 61 1016.6
20260904143231 87 155 2.0 4.0 0.00 0.00 0.00 63 1016.6
20260904142730 86 167 2.0 6.0 0.00 0.00 0.00 65 1016.6
20260904142231 85 141 2.0 6.0 0.00 0.00 0.00 66 1016.6
20260904141731 85 200 2.0 5.0 0.00 0.00 0.00 67 1016.6
20260904141231 84 229 2.0 4.0 0.00 0.00 0.00 68 1016.6
20260904140730 83 221 2.0 5.0 0.00 0.00 0.00 70 1016.6
20260904140228 82 213 2.0 5.0 0.00 0.00 0.00 72 1016.5
20260904135729 81 309 2.0 5.0 0.00 0.00 0.00 74 1016.5
20260904134729 79 144 1.0 3.0 0.00 0.00 0.00 78 1016.5
20260904133730 77 240 0.0 2.0 0.00 0.00 0.00 80 1016.5
20260904133231 77 247 0.0 1.0 0.00 0.00 0.00 81 1016.5
20260904132730 76 247 0.0 2.0 0.00 0.00 0.00 82 1016.3
20260904132230 76 199 0.0 2.0 0.00 0.00 0.00 83 1016.3
20260904131229 74 154 0.0 1.0 0.00 0.00 0.00 86 1016.3
20260904130225 73 148 0.0 0.0 0.00 0.00 0.00 87 1016.2
20260904125719 72 148 0.0 1.0 0.00 0.00 0.00 88 1016.1
20260904125213 72 148 0.0 0.0 0.00 0.00 0.00 88 1016.0
20260904124704 72 136 0.0 0.0 0.00 0.00 0.00 87 1016.0
20260904123704 71 148 0.0 0.0 0.00 0.00 0.00 87 1015.9
20260904123203 71 148 0.0 0.0 0.00 0.00 0.00 87 1016.0
20260904122704 71 148 0.0 0.0 0.00 0.00 0.00 86 1015.9
20260904121702 71 148 0.0 0.0 0.00 0.00 0.00 86 1015.8
20260904121200 71 148 0.0 0.0 0.00 0.00 0.00 86 1015.8
20260904120658 72 148 0.0 0.0 0.00 0.00 0.00 85 1015.9
20260904120157 72 148 0.0 0.0 0.00 0.00 0.00 85 1015.8
20260904115654 72 148 0.0 0.0 0.00 0.00 0.00 85 1015.8
20260904115154 72 148 0.0 0.0 0.00 0.00 0.00 85 1015.8
20260904114651 72 148 0.0 1.0 0.00 0.00 0.00 85 1015.7
20260904113646 72 148 0.0 0.0 0.00 0.00 0.00 84 1015.7
20260904113140 73 148 0.0 0.0 0.00 0.00 0.00 83 1015.6
20260904112637 73 148 0.0 0.0 0.00 0.00 0.00 82 1015.6
20260904112134 73 148 0.0 0.0 0.00 0.00 0.00 82 1015.6
20260904111633 73 148 0.0 0.0 0.00 0.00 0.00 82 1015.5
20260904111132 73 148 0.0 1.0 0.00 0.00 0.00 82 1015.4
20260904110632 73 148 0.0 1.0 0.00 0.00 0.00 82 1015.5
20260904110132 73 148 0.0 1.0 0.00 0.00 0.00 82 1015.4
20260904105632 74 148 0.0 0.0 0.00 0.00 0.00 82 1015.4
20260904105132 74 148 0.0 0.0 0.00 0.00 0.00 81 1015.4
20260904104631 74 148 0.0 0.0 0.00 0.00 0.00 81 1015.4
20260904104131 74 148 0.0 0.0 0.00 0.00 0.00 81 1015.5
20260904103631 74 148 0.0 0.0 0.00 0.00 0.00 80 1015.4
20260904103130 74 148 0.0 0.0 0.00 0.00 0.00 80 1015.3
20260904102631 74 148 0.0 0.0 0.00 0.00 0.00 80 1015.3
20260904101631 75 148 0.0 0.0 0.00 0.00 0.00 79 1015.2
20260904101131 75 148 0.0 0.0 0.00 0.00 0.00 79 1015.1
20260904100630 75 148 0.0 0.0 0.00 0.00 0.00 78 1015.1
20260904095131 75 148 0.0 0.0 0.00 0.00 0.00 78 1015.0
20260904094132 76 148 0.0 1.0 0.00 0.00 0.00 77 1014.9
20260904093630 76 96 0.0 1.0 0.00 0.00 0.00 77 1014.9
20260904093131 76 97 0.0 1.0 0.00 0.00 0.00 77 1014.7
20260904091632 76 71 0.0 1.0 0.00 0.00 0.00 77 1014.7
20260904090615 76 81 0.0 2.0 0.00 0.00 0.00 76 1014.8
20260904090113 76 83 0.0 2.0 0.00 0.00 0.00 76 1014.8
20260904085105 76 90 0.0 2.0 0.00 0.00 0.00 76 1014.7
20260904084605 76 32 0.0 1.0 0.00 0.00 0.00 75 1014.7
20260904084103 77 31 0.0 1.0 0.00 0.00 0.00 75 1014.8
20260904083605 77 31 0.0 2.0 0.00 0.00 0.00 75 1014.7
20260904083103 77 31 0.0 2.0 0.00 0.00 0.00 74 1014.7